User: anonymous   Login
Location: Unspecified
(0.0000°N, 0.0000°E)
Time: 02:05:04
(UTC+00:00)
Language:

NNS O-25 - Orbit

View from above orbital plane
View from above orbital plane
View from above satellite
View from above satellite

Ground track
Ground track

The orbit data is extracted from the following two-line orbital elements,

1 19419U 88074A   24107.51424608  .00000158  00000-0  25566-3 0  9996
2 19419  90.0239  18.6330 0096174 171.7443   1.8283 13.42439531745197
Epoch (UTC): 16 April 2024 12:20:30
Eccentricity: 0.0096174
inclination: 90.0239°
perigee height: 1028 km
apogee height: 1172 km
right ascension of ascending node: 18.6330°
argument of perigee: 171.7443°
revolutions per day: 13.42439531
mean anomaly at epoch: 1.8283°
orbit number at epoch: 74519

The dashed part of the orbit path shows where the satellite is in the earth's shadow,  

DLR